RSP-03

Last updated on Mon Oct 20 2025 00:02:06 GMT+0000 (Coordinated Universal Time)

1 65732U 98067XL 25292.28888805 .00129502 00000+0 17880-2 0 9994 2 65732 51.6313 51.1844 0003420 350.2311 9.8613 15.56231084 4658
UTC large
Height (km)
Speed (km/s)
/
Latitude / Longitude
Inclination (degrees)
Orbital Period (minutes)
Azimuth
Elevation
Range (km)
Doppler Factor

Next 0 passes for location: London (51.5072 / 0.1276)

Sorry there are no passes over London.